Change the Weather History Date:

Friday, February 21, 2014

  Actual Average Record
Temperature  
Mean Temperature 24 °F 28 °F  
Max Temperature 34 °F 39 °F 69 °F (1896)
Min Temperature 14 °F 17 °F -20 °F (1918)
Degree Days  
Heating Degree Days 41 37  
Month to date heating degree days 1003 802  
Since 1 July heating degree days 5254 5253  
Cooling Degree Days 0 0  
Month to date cooling degree days 0 0  
Year to date cooling degree days 0 0  
Moisture  
Dew Point 15 °F    
Average Humidity 66    
Maximum Humidity 91    
Minimum Humidity 41    
Precipitation  
Precipitation 0.08 in 0.02 in 0.88 in (1951)
Month to date precipitation 0.46 0.34  
Year to date precipitation 1.76 0.85  
Snow  
Snow 1.80 in 0.30 in 11.00 in (1951)
Month to date snowfall 7.5 6.1  
Since 1 July snowfall 49.5 37.9  
Snow Depth 0.00 in    
Sea Level Pressure  
Sea Level Pressure 29.97 in    
Wind  
Wind Speed 12 mph (NNW)    
Max Wind Speed 26 mph    
Max Gust Speed 31 mph    
Visibility 5 miles    
Events Snow    
T = Trace of Precipitation, MM = Missing Value Source: NWS Daily Summary

Daily Weather History Graph

Daily Weather History Graph

Search for Another Location

Airport or City:

Trip Planner

Search our weather history database for the weather conditions in past years. The results will help you decide how hot, cold, wet, or windy it might be!

Date:

Astronomy

Feb. 21, 2014 Rise Set
Actual Time 7:20 AM MST 5:58 PM MST
Civil Twilight 6:49 AM MST 6:29 PM MST
Nautical Twilight 6:13 AM MST 7:05 PM MST
Astronomical Twilight 5:38 AM MST 7:41 PM MST
Moon 12:22 AM MST 10:19 AM MST
Length of Visible Light 11h 40m
Length of Day
10h 38m
Waning Gibbous, 60% of the Moon is Illuminated
Feb 21
Waning Gibbous
Feb 22
Last Quarter
Mar 1
New
Mar 8
First Quarter
Mar 16
Full

Hourly Weather History & Observations

Time (MST) Temp. Windchill Dew Point Humidity Pressure Visibility Wind Dir Wind Speed Gust Speed Precip Events Conditions
12:53 AM 26.1 °F 15.6 °F 18.0 °F 71% 29.86 in 10.0 mi SW 11.5 mph - N/A   Mostly Cloudy
1:53 AM 27.0 °F 16.1 °F 18.0 °F 69% 29.85 in 10.0 mi SW 12.7 mph - N/A   Partly Cloudy
2:53 AM 24.1 °F 12.0 °F 14.0 °F 65% 29.87 in 10.0 mi SW 13.8 mph - N/A   Partly Cloudy
3:53 AM 24.1 °F 13.7 °F 12.0 °F 60% 29.87 in 10.0 mi SW 10.4 mph - N/A   Clear
4:53 AM 19.9 °F 10.1 °F 12.0 °F 71% 29.87 in 10.0 mi SW 8.1 mph - N/A   Clear
5:53 AM 21.9 °F 12.5 °F 15.1 °F 75% 29.89 in 10.0 mi West 8.1 mph - N/A   Clear
6:53 AM 21.0 °F 14.6 °F 15.1 °F 78% 29.90 in 10.0 mi West 4.6 mph - N/A   Partly Cloudy
7:53 AM 23.0 °F 15.8 °F 17.1 °F 78% 29.92 in 10.0 mi NW 5.8 mph - N/A   Scattered Clouds
8:53 AM 28.0 °F 16.5 °F 18.0 °F 66% 29.94 in 10.0 mi NW 15.0 mph - N/A   Overcast
9:53 AM 28.9 °F 16.1 °F 17.1 °F 61% 29.95 in 10.0 mi WNW 19.6 mph 26.5 mph N/A   Mostly Cloudy
10:53 AM 33.1 °F 20.9 °F 15.1 °F 48% 29.95 in 10.0 mi NW 21.9 mph 28.8 mph N/A   Clear
11:53 AM 33.1 °F 23.0 °F 12.9 °F 43% 29.96 in 10.0 mi NW 15.0 mph - N/A   Clear
12:53 PM 32.0 °F 22.5 °F 12.9 °F 45% 29.96 in 10.0 mi NW 12.7 mph - N/A   Scattered Clouds
1:53 PM 32.0 °F 23.0 °F 15.1 °F 50% 29.96 in 10.0 mi North 11.5 mph - N/A   Overcast
2:53 PM 30.0 °F 26.5 °F 15.1 °F 54% 29.98 in 10.0 mi NNW 3.5 mph - N/A   Overcast
3:53 PM 30.0 °F 23.2 °F 16.0 °F 56% 29.99 in 10.0 mi North 6.9 mph - 0.00 in   Overcast
4:53 PM 27.0 °F 18.0 °F 19.0 °F 72% 30.01 in 4.0 mi North 9.2 mph - 0.00 in Snow Light Snow
5:36 PM 24.8 °F 14.6 °F 17.6 °F 74% 29.87 in 2.5 mi NNE 10.4 mph - 0.00 in Snow Light Snow
5:44 PM 24.8 °F 16.9 °F 17.6 °F 74% 29.87 in 1.5 mi NNE 6.9 mph - 0.00 in Snow Light Snow
5:53 PM 24.1 °F 17.0 °F 19.0 °F 81% 30.04 in 1.0 mi North 5.8 mph - 0.00 in Snow Light Snow
6:02 PM 24.8 °F 15.3 °F 19.4 °F 80% 29.88 in 1.0 mi NNE 9.2 mph - 0.01 in Snow Light Snow
6:31 PM 23.0 °F 9.2 °F 17.6 °F 80% 29.90 in 5.0 mi North 17.3 mph 20.7 mph 0.01 in Snow Light Snow
6:53 PM 21.9 °F 6.9 °F 16.0 °F 78% 30.10 in 2.5 mi North 19.6 mph 25.3 mph 0.01 in Snow Light Snow
7:02 PM 19.4 °F 6.0 °F 17.6 °F 93% 29.93 in 1.0 mi North 13.8 mph - 0.00 in Snow Light Snow
7:06 PM 19.4 °F 4.1 °F 17.6 °F 93% 29.93 in 0.8 mi North 18.4 mph 23.0 mph 0.00 in Snow Light Snow
7:18 PM 19.4 °F 4.5 °F 17.6 °F 93% 29.93 in 1.2 mi North 17.3 mph - 0.01 in Snow Light Snow
7:22 PM 19.4 °F 6.0 °F 17.6 °F 93% 29.93 in 2.0 mi North 13.8 mph - 0.01 in Snow Light Snow
7:31 PM 19.4 °F 6.6 °F 17.6 °F 93% 29.94 in 7.0 mi North 12.7 mph - 0.01 in Snow Light Snow
7:46 PM 19.4 °F 7.2 °F 17.6 °F 93% 29.95 in 1.8 mi North 11.5 mph - 0.01 in Snow Light Snow
7:51 PM 19.4 °F 6.0 °F 17.6 °F 93% 29.95 in 1.2 mi North 13.8 mph 19.6 mph 0.01 in Snow Light Snow
7:53 PM 19.0 °F 3.6 °F 17.1 °F 92% 30.13 in 1.0 mi North 18.4 mph - 0.01 in Snow Light Snow
7:58 PM 19.4 °F 5.5 °F 15.8 °F 86% 29.95 in 0.8 mi North 15.0 mph 21.9 mph 0.00 in Snow Light Snow
8:12 PM 17.6 °F 2.2 °F 15.8 °F 93% 29.95 in 1.0 mi North 17.3 mph - 0.01 in Snow Light Snow
8:27 PM 17.6 °F 1.7 °F 15.8 °F 93% 29.96 in 1.5 mi North 18.4 mph - 0.01 in Snow Light Snow
8:35 PM 17.6 °F 2.7 °F 14.0 °F 86% 29.97 in 3.0 mi North 16.1 mph - 0.01 in Snow Light Snow
8:43 PM 17.6 °F 3.2 °F 14.0 °F 86% 29.97 in 8.0 mi North 15.0 mph - 0.01 in Snow Light Snow
8:53 PM 17.1 °F 2.5 °F 12.9 °F 84% 30.15 in 10.0 mi North 15.0 mph - 0.01 in   Overcast
9:29 PM 17.6 °F 7.3 °F 14.0 °F 86% 29.99 in 2.0 mi North 8.1 mph - 0.00 in Snow Light Snow
9:41 PM 17.6 °F 4.3 °F 12.2 °F 79% 29.99 in 1.5 mi North 12.7 mph 20.7 mph 0.01 in Snow Light Snow
9:51 PM 15.8 °F 2.1 °F 14.0 °F 93% 29.99 in 1.2 mi NNW 12.7 mph - 0.01 in Snow Light Snow
9:53 PM 16.0 °F 5.3 °F 14.0 °F 92% 30.16 in 1.2 mi NNW 8.1 mph - 0.01 in Snow Light Snow
10:16 PM 15.8 °F 5.1 °F 14.0 °F 93% 29.99 in 1.5 mi NNW 8.1 mph - 0.01 in Snow Light Snow
10:24 PM 15.8 °F 7.2 °F 14.0 °F 93% 29.99 in 2.0 mi NNW 5.8 mph - 0.01 in Snow Light Snow
10:36 PM 15.8 °F 6.1 °F 12.2 °F 86% 30.00 in 1.5 mi NNW 6.9 mph - 0.02 in Snow Light Snow
10:53 PM 16.0 °F 2.3 °F 12.0 °F 84% 30.16 in 1.5 mi NNW 12.7 mph - 0.02 in Snow Light Snow
11:12 PM 15.8 °F 2.7 °F 12.2 °F 86% 30.00 in 1.2 mi NNW 11.5 mph - 0.00 in Snow Light Snow
11:36 PM 14.0 °F -1.4 °F 12.2 °F 93% 30.00 in 0.8 mi NW 15.0 mph - 0.01 in Snow Light Snow
11:49 PM 14.0 °F 0.5 °F 10.4 °F 86% 30.01 in 1.0 mi NNW 11.5 mph - 0.02 in Snow Light Snow
11:53 PM 14.0 °F 1.2 °F 10.9 °F 88% 30.18 in 1.0 mi NNW 10.4 mph - 0.02 in Snow Light Snow